Home > Weather > Chula Vista > Past weeks

Flag for USA Past Weather in Chula Vista, California, USA — Yesterday and Last 2 Weeks

Now
80 °F

Sunny.


Feels Like: 81 °F
Forecast: 70 / 83 °F
Wind: 8 mph from Northwest

Location: Brown Field Municipal Airport

Current Time: Jul 26, 2016 at 7:01:11 PM

Latest Report: Jul 26, 2016 at 5:53 PM


Visibility: 10 mi

Pressure: 29.84 "Hg

Humidity: 52%

Dew Point: 61 °F

Location of Chula VistaLocation

Past Weather in Chula Vista — Graph

°F

Chula Vista Temperature Yesterday

Maximum temperature yesterday: 81 °F (at 4:53 PM)
Minimum temperature yesterday: 69 °F (at 10:53 PM)
Average temperature yesterday: 73 °F

High & Low Weather Summary for the Past Weeks

 TemperatureHumidityPressure
High93 °F (Jul 22, 11:53 AM)97% (Jul 22, 6:53 AM)30.03 "Hg (Jul 22, 6:53 AM)
Low61 °F (Jul 13, 12:53 AM)28% (Jul 22, 1:53 PM)29.79 "Hg (Jul 23, 4:53 AM)
Average73 °F72%29.92 "Hg
* Reported Jul 11 5:53 PM — Jul 26 5:53 PM, Chula Vista, Weather by CustomWeather, © 2016

Note: Actual official high and low records may vary slightly from our data, if they occured in-between our weather recording intervals... More about our weather records

Advertising

Chula Vista Weather History for the Previous 24 Hours

Scroll right to see more
 ConditionsComfort  
Time TempWeatherWind HumidityBarometerVisibility
5:53 PM
Tue, Jul 26
80 °FSunny.8 mph52%29.84 "Hg10 mi
4:53 PM82 °FSunny.9 mph55%29.84 "Hg10 mi
3:53 PM85 °FSunny.8 mph48%29.85 "Hg10 mi
2:53 PM85 °FSunny.7 mph51%29.86 "Hg10 mi
1:53 PM85 °FSunny.8 mph55%29.86 "Hg10 mi
12:53 PM85 °FSunny.9 mph55%29.87 "Hg10 mi
11:53 AM83 °FSunny.9 mph59%29.88 "Hg10 mi
10:53 AM83 °FSunny.8 mph59%29.89 "Hg10 mi
9:53 AM80 °FSunny.5 mph62%29.89 "Hg10 mi
8:53 AM78 °FSunny.3 mph66%29.90 "Hg8 mi
7:53 AM74 °FSunny.No wind79%29.90 "Hg8 mi
6:53 AM71 °FClear.No wind84%29.89 "Hg7 mi
5:53 AM69 °FClear.3 mph87%29.87 "Hg7 mi
4:53 AM69 °FFog.No wind90%29.86 "Hg6 mi
3:53 AM69 °FFog.No wind87%29.87 "Hg6 mi
2:53 AM70 °FClear.No wind84%29.88 "Hg6 mi
1:53 AM69 °FClear.No wind87%29.89 "Hg8 mi
12:53 AM70 °FClear.No wind87%29.90 "Hg9 mi
11:53 PM
Mon, Jul 25
70 °FClear.No wind84%29.91 "Hg10 mi
10:53 PM69 °FClear.No wind87%29.92 "Hg10 mi
9:53 PM71 °FClear.No wind81%29.91 "Hg10 mi
8:53 PM70 °FClear.No wind81%29.90 "Hg10 mi
7:53 PM73 °FSunny.3 mph74%29.89 "Hg10 mi
Weather by CustomWeather, © 2016

See weather overviewHow to use our weather pages